Location: *
(45.8589°N, 4.7139°E)
Time: 19:54:26
(UTC+00:00)

STARLINK-29 - Pass Details

Date: 09 April 2020
Orbit: 387 x 401 km, 53.0° (Epoch: 01 June)

Event Time Altitude Azimuth Distance (km) Brightness Sun altitude
Rises 20:01:45 0° 253° (WSW) 2,284 7.4 -17.1°
Reaches altitude 10° 20:03:51 10° 260° (W) 1,433 6.4 -17.4°
Maximum altitude 20:06:58 47° 336° (NNW) 536 3.9 -17.9°
Enters shadow 20:08:58 19° 44° (NE) 1,015 4.9 -18.2°
